Henderson, TX

2:32 PM CST on November 22, 2017 (GMT -0600)
Henderson

Weather History for KRFI - November, 2011

Change the Weather History Date:

Tuesday, November 15, 2011

  Actual Average (KGGG) Record (KGGG)
Temperature  
Mean Temperature 68 °F -  
Max Temperature 73 °F 64 °F 87 °F (1955)
Min Temperature 62 °F 44 °F 21 °F (1916)
Cooling Degree Days 2    
Growing Degree Days 18 (Base 50)    
Moisture  
Dew Point 64 °F    
Average Humidity 82    
Maximum Humidity 94    
Minimum Humidity 73    
Precipitation  
Precipitation 0.00 in - - ()
Sea Level Pressure  
Sea Level Pressure 29.78 in    
Wind  
Wind Speed 6 mph (South)    
Max Wind Speed 10 mph    
Max Gust Speed -    
Visibility 10 miles    
Events Rain , Thunderstorm    
Averages and records for this station are not official NWS values.
T = Trace of Precipitation, MM = Missing Value Source: NWS Daily Summary

Daily Weather History Graph

Daily Weather History Graph

Search for Another Location

Airport or City:

Trip Planner

Search our weather history database for the weather conditions in past years. The results will help you decide how hot, cold, wet, or windy it might be!

Date:

Astronomy

Nov. 15, 2011 Rise Set
Actual Time 6:48 AM CST 5:19 PM CST
Civil Twilight 6:22 AM CST 5:45 PM CST
Nautical Twilight 5:52 AM CST 6:14 PM CST
Astronomical Twilight 5:23 AM CST 6:44 PM CST
Moon 9:30 PM CST (11/15) 10:46 AM CST (11/15)
Length of Visible Light 11h 23m
Length of Day
10h 31m
Waning Gibbous, 79% of the Moon is Illuminated
Nov 15
Waning Gibbous
Nov 18
Last Quarter
Nov 25
New
Dec 2
First Quarter
Dec 10
Full

Hourly Weather History & Observations

Time (CST) Temp. Dew Point Humidity Pressure Visibility Wind Dir Wind Speed Gust Speed Precip Events Conditions
12:15 AM 69.8 °F 62.6 °F 78% 29.82 in 10.0 mi South 9.2 mph - N/A   Mostly Cloudy
12:35 AM 69.8 °F 62.6 °F 78% 29.82 in 10.0 mi South 6.9 mph - N/A   Scattered Clouds
1:15 AM 69.8 °F 62.6 °F 78% 29.82 in 10.0 mi SSW 5.8 mph - N/A   Overcast
1:35 AM 69.8 °F 62.6 °F 78% 29.83 in 10.0 mi South 4.6 mph - N/A   Overcast
1:55 AM 69.8 °F 62.6 °F 78% 29.83 in 10.0 mi South 5.8 mph - N/A   Overcast
2:15 AM 68.0 °F 62.6 °F 83% 29.82 in 10.0 mi South 6.9 mph - N/A   Overcast
2:35 AM 68.0 °F 62.6 °F 83% 29.82 in 10.0 mi South 8.1 mph - N/A   Overcast
2:55 AM 68.0 °F 62.6 °F 83% 29.82 in 10.0 mi South 5.8 mph - N/A   Overcast
3:15 AM 68.0 °F 62.6 °F 83% 29.81 in 10.0 mi South 6.9 mph - N/A   Overcast
3:35 AM 68.0 °F 62.6 °F 83% 29.81 in 10.0 mi South 5.8 mph - N/A   Overcast
3:55 AM 68.0 °F 62.6 °F 83% 29.80 in 10.0 mi South 6.9 mph - N/A Rain Rain
4:15 AM 68.0 °F 62.6 °F 83% 29.80 in 10.0 mi South 6.9 mph - N/A   Overcast
4:35 AM 68.0 °F 62.6 °F 83% 29.79 in 10.0 mi South 8.1 mph - N/A   Overcast
4:55 AM 68.0 °F 62.6 °F 83% 29.78 in 10.0 mi South 8.1 mph - N/A   Scattered Clouds
5:15 AM 68.0 °F 62.6 °F 83% 29.79 in 10.0 mi SSW 6.9 mph - N/A   Scattered Clouds
5:35 AM 68.0 °F 62.6 °F 83% 29.80 in 10.0 mi SSW 3.5 mph - N/A   Overcast
5:55 AM 68.0 °F 62.6 °F 83% 29.80 in 10.0 mi SW 3.5 mph - N/A   Overcast
6:55 AM 68.0 °F 64.4 °F 88% 29.80 in 10.0 mi South 8.1 mph - N/A   Overcast
7:15 AM 68.0 °F 64.4 °F 88% 29.80 in 10.0 mi South 9.2 mph - N/A   Overcast
7:35 AM 69.8 °F 64.4 °F 83% 29.80 in 10.0 mi South 10.4 mph - N/A   Overcast
7:55 AM 69.8 °F 64.4 °F 83% 29.82 in 10.0 mi South 8.1 mph - N/A   Overcast
8:15 AM 69.8 °F 64.4 °F 83% 29.82 in 10.0 mi South 8.1 mph - N/A   Overcast
8:35 AM 71.6 °F 64.4 °F 78% 29.83 in 10.0 mi South 8.1 mph - N/A   Overcast
8:55 AM 71.6 °F 64.4 °F 78% 29.83 in 10.0 mi South 8.1 mph - N/A   Overcast
9:15 AM 71.6 °F 64.4 °F 78% 29.83 in 10.0 mi South 5.8 mph - N/A   Overcast
9:35 AM 71.6 °F 64.4 °F 78% 29.83 in 10.0 mi South 6.9 mph - N/A   Overcast
9:55 AM 71.6 °F 64.4 °F 78% 29.83 in 10.0 mi South 6.9 mph - N/A   Overcast
10:15 AM 71.6 °F 66.2 °F 83% 29.83 in 10.0 mi South 6.9 mph - N/A   Overcast
10:55 AM 71.6 °F 66.2 °F 83% 29.83 in 10.0 mi South 6.9 mph - N/A   Overcast
11:15 AM 71.6 °F 66.2 °F 83% 29.82 in 10.0 mi South 5.8 mph - N/A   Overcast
11:35 AM 71.6 °F 66.2 °F 83% 29.80 in 10.0 mi South 5.8 mph - N/A   Overcast
11:55 AM 71.6 °F 66.2 °F 83% 29.79 in 10.0 mi South 5.8 mph - N/A   Overcast
12:15 PM 71.6 °F 66.2 °F 83% 29.77 in 10.0 mi South 5.8 mph - N/A   Overcast
12:35 PM 71.6 °F 66.2 °F 83% 29.76 in 10.0 mi South 5.8 mph - N/A Rain Light Rain
12:55 PM 73.4 °F 66.2 °F 78% 29.75 in 10.0 mi South 5.8 mph - N/A   Mostly Cloudy
1:15 PM 73.4 °F 66.2 °F 78% 29.74 in 10.0 mi SSE 5.8 mph - N/A   Mostly Cloudy
1:35 PM 73.4 °F 66.2 °F 78% 29.73 in 10.0 mi SSE 4.6 mph - N/A   Mostly Cloudy
1:55 PM 73.4 °F 66.2 °F 78% 29.73 in 10.0 mi SSE 5.8 mph - N/A   Scattered Clouds
2:15 PM 73.4 °F 64.4 °F 73% 29.73 in 10.0 mi SSE 5.8 mph - N/A   Mostly Cloudy
2:35 PM 73.4 °F 66.2 °F 78% 29.71 in 10.0 mi Calm Calm - N/A   Mostly Cloudy
2:55 PM 73.4 °F 64.4 °F 73% 29.71 in 10.0 mi South 3.5 mph - N/A Thunderstorm Scattered Clouds
3:15 PM 73.4 °F 64.4 °F 73% 29.72 in 10.0 mi SSE 3.5 mph - N/A   Scattered Clouds
3:35 PM 73.4 °F 64.4 °F 73% 29.72 in 10.0 mi SSE 4.6 mph - N/A   Mostly Cloudy
3:55 PM 73.4 °F 66.2 °F 78% 29.72 in 10.0 mi SSE 6.9 mph - N/A Thunderstorm Mostly Cloudy
4:15 PM 71.6 °F 66.2 °F 83% 29.72 in 7.0 mi SSE 8.1 mph - N/A Rain Rain
5:55 PM 66.2 °F 62.6 °F 88% 29.73 in - East 4.6 mph - N/A Rain , Thunderstorm Thunderstorms and Rain
6:15 PM 66.2 °F 62.6 °F 88% 29.71 in 10.0 mi East 4.6 mph - N/A Rain Light Rain
6:35 PM 66.2 °F 62.6 °F 88% 29.70 in 7.0 mi SE 4.6 mph - N/A   Mostly Cloudy
6:55 PM 66.2 °F 62.6 °F 88% 29.73 in 10.0 mi Calm Calm - N/A   Scattered Clouds
7:15 PM 64.4 °F 62.6 °F 94% 29.73 in 10.0 mi Calm Calm - N/A   Scattered Clouds
7:35 PM 64.4 °F 62.6 °F 94% 29.74 in 10.0 mi SE 4.6 mph - N/A   Clear
7:55 PM 64.4 °F 60.8 °F 88% 29.73 in 10.0 mi Calm Calm - N/A   Clear
8:15 PM 64.4 °F 60.8 °F 88% 29.73 in 10.0 mi Calm Calm - N/A   Scattered Clouds
8:35 PM 62.6 °F 60.8 °F 94% 29.73 in 10.0 mi SSE 3.5 mph - N/A   Scattered Clouds
8:55 PM 62.6 °F 60.8 °F 94% 29.73 in 10.0 mi South 3.5 mph - N/A   Overcast
9:15 PM 62.6 °F 60.8 °F 94% 29.74 in 10.0 mi Calm Calm - N/A   Overcast
9:35 PM 62.6 °F 60.8 °F 94% 29.74 in 10.0 mi Calm Calm - N/A   Scattered Clouds
9:55 PM 62.6 °F 60.8 °F 94% 29.73 in 7.0 mi Calm Calm - N/A   Clear
10:15 PM 62.6 °F 60.8 °F 94% 29.74 in 5.0 mi Calm Calm - N/A   Clear
10:35 PM 62.6 °F 60.8 °F 94% 29.74 in 5.0 mi Calm Calm - N/A   Clear
10:55 PM 62.6 °F 60.8 °F 94% 29.74 in 5.0 mi Calm Calm - N/A   Clear
11:35 PM 60.8 °F 59.0 °F 94% 29.74 in 0.5 mi Calm Calm - N/A Fog Fog
11:55 PM 60.8 °F 59.0 °F 94% 29.74 in 1.2 mi Calm Calm - N/A   Mostly Cloudy